Location: Baia Mare
(47.6567°N, 23.5850°E)
Time: 02:18:13
(UTC+03:00)

ISS - Pass Details

Date: 22 July 2018
Orbit: 402 x 408 km, 51.6° (Epoch: 18 July)

Event Time Altitude Azimuth Distance (km) Brightness Sun altitude
Rises 03:08:09 0° 293° (WNW) 2,330 0.0 -18.7°
Reaches altitude 10° 03:10:14 10° 293° (WNW) 1,468 -1.0 -18.5°
Maximum altitude 03:13:32 84° 205° (SSW) 413 -4.0 -18.3°
Drops below altitude 10° 03:16:49 10° 117° (ESE) 1,464 -1.0 -18.1°
Sets 03:18:53 0° 117° (ESE) 2,323 0.0 -17.9°
